Погода в Коротыше

Россия / Орловская область     52°22′18″N   37°27′02″E
темп.,
°C
ветер,
м/с
пор.,
м/с
влажн.,
%
обл.,
%
осадки,
мм/ч
давл.,
гПа
погр.,
м
22 апреля, чт
чт2200:00+5зюз479098 0.2 1016585
03:00+4юз249163 0.2 1017104
06:00+3ююз36955 0.0 1018128
09:00+9юз46755 0.0 1018485
12:00+13юз675862 0.3 10181646
15:00+14ююз6853100 1.4 10171740
18:00+13ююз486599 1.1 1018413
21:00+9ююз4108197 1.6 1019240
23 апреля, пт
пт2300:00+8ю4108475 0.0 1019189
03:00+7ю49845 0.0 1018144
06:00+7ю4108290 0.0 1018175
09:00+12ю5106858 0.1 1018681
12:00+15ю71048100 0.0 10162462
15:00+15ю695382 0.3 10141824
18:00+14ююз5964100 1.2 1013522
21:00+10ю41084100 3.9 1012381
24 апреля, сб
сб2400:00+7зсз6895100 5.4 1011543
03:00+4зсз61196100 6.1 1012607
06:00+4зюз388866 0.1 1012511
09:00+7з56695 0.1 1012963
12:00+9з675498 0.6 10111877
15:00+9з6845100 1.1 10112387
18:00+5з81086100 0.6 1012712
21:00+3з7117626 0.6 1013755
25 апреля, вс
вс2500:00+2з714755 0.0 1014633
03:00+1з612835 0.0 1016450
06:000зюз512845 0.0 1016406
09:00+5зюз69635 0.0 10171104
12:00+8зюз71144100 0.0 10162718
15:00+8зюз81155100 0.6 10161816
18:00+7зюз61068100 1.0 10161372
21:00+4юз588594 1.6 1017434
26 апреля, пн
пн2600:00+4ююз4690100 0.5 1017396
03:00+2ю4596100 1.9 1016221
06:00+3юз3595100 0.1 1016428
09:00+3з3383100 0.2 1016655
12:00+6ююз3368100 0.5 1015917
15:00+6юз3467100 1.5 1013949
18:00+7зюз356287 1.0 1012900
21:00+4зюз3879100 1.3 1012202